Regional Weather Roundup
Issued by NWS

Home | Current Version | Previous Version | Graphics & Text | Print | Product List | Glossary On
Versions: 1 2 3 4 5 6 7 8 9 10 11 12 13 14 15 16 17 18 19 20 21 22 23 24 25 26 27 28 29 30 31 32 33 34 35 36 37 38 39 40 41 42 43 44 45 46 47 48 49 50
000
ASUS43 KMPX 110810
RWRMN
WEATHER ROUNDUP FOR MINNESOTA
NATIONAL WEATHER SERVICE TWIN CITIES/CHANHASSEN MN
200 AM CST THU FEB 11 2016


NOTE: "FAIR" INDICATES FEW OR NO CLOUDS BELOW 12,000 FEET WITH NO
SIGNIFICANT WEATHER AND/OR OBSTRUCTIONS TO VISIBILITY. N/A MEANS
CURRENT SKY AND/OR WEATHER CONDITIONS ARE NOT AVAILABLE.

MNZ060>063-068>070-110900-
   Twin Cities Metro

CITY           SKY/WX    TMP DP  RH WIND       PRES   REMARKS
TWIN CITIES    PTCLDY     6  -3  66 NW3       30.28S
ST PAUL        CLOUDY     7  -4  60 N7        30.30S WCI  -5
CRYSTAL        CLEAR      5  -4  66 CALM      30.27S
BLAINE         CLEAR      5  -2  72 N3        30.27S
LAKEVILLE      PTCLDY     1  -2  85 CALM      30.27S
EDEN PRAIRIE   PTCLDY     6  -4  63 N5        30.27S WCI  -3
SOUTH ST PAUL  PTCLDY     4  -4  70 CALM      30.28S
LAKE ELMO      FAIR       0  -6  78 CALM      30.28S
$$
MNZ001>005-007-008-013>017-022>024-027-028-110900-
   Northwest Minnesota

CITY           SKY/WX    TMP DP  RH WIND       PRES   REMARKS
BEMIDJI        CLOUDY   -17 -22  79 CALM      30.22F
HALLOCK        CLOUDY    -8 -11  84 CALM      30.29S
ROSEAU         CLOUDY   -15 -20  76 CALM      30.27S
WARROAD        CLOUDY   -11 -17  77 CALM      30.26S
THIEF RVR FALL CLOUDY    -6  -6 100 CALM      30.27F
CROOKSTON      CLOUDY    -2  -6  84 CALM      30.30F
FOSSTON        PTCLDY   -15 -22  70 CALM      30.25S
DETROIT LAKES  CLOUDY     3  -2  78 E3        30.24F
MOORHEAD       CLOUDY     3  -2  78 NE3       30.28S
PARK RAPIDS    CLOUDY   -10 -16  74 CALM      30.22S
MAHNOMEN       FAIR      -6 -10  82 CALM      30.25S
$$
MNZ006-009>011-018-025>026-110900-
   North Central Minnesota

CITY           SKY/WX    TMP DP  RH WIND       PRES   REMARKS
BAUDETTE       CLOUDY   -18 -25  70 CALM      30.24S
FLAG ISLAND    CLOUDY    -8 -11  84 N3        30.25S
INTL FALLS     CLOUDY   -21 -25  81 CALM      30.23F
WASKISH        CLOUDY   -18 -24  76 CALM      30.25S
LONGVILLE      CLOUDY   -15 -18  84 CALM      30.24S
GRAND RAPIDS   CLOUDY   -13 -18  77 CALM      30.22R
CRANE LAKE     CLOUDY   -20 -26  76 CALM      30.27R
ORR            CLOUDY   -20 -27  69 CALM      30.19F
COOK           CLOUDY   -26 -31  75 CALM      30.22F
WALKER         FAIR     -12 -16  80 NW3       30.23S
$$
MNZ012-019>021-037-110900-
   Northeast Minnesota

CITY           SKY/WX    TMP DP  RH WIND       PRES   REMARKS
DULUTH         PTCLDY    -6 -12  75 N7        30.18F WCI -20
ELY            CLOUDY   -26 -29  83 CALM      30.20S
HIBBING        PTCLDY   -24 -27  85 NW6       30.22S WCI -40
EVELETH        PTCLDY   -17 -24  70 CALM      30.22F
DULUTH HARBOR  CLOUDY     3  -6  66 N8        30.30S WCI -10
TWO HARBORS    PTCLDY    -4 -11  71 W3        30.21R
SILVER BAY     PTCLDY    -9 -15  77 CALM      30.19S
GRAND MARAIS     N/A    -10 -15  78 CALM      30.24S
G MARAIS ARPRT CLEAR     -8 -15  71 NW7       30.08S WCI -22
$$
MNZ029>031-032-039>041-046>048-054>057-064-110900-
   West Central Minnesota

CITY           SKY/WX    TMP DP  RH WIND       PRES   REMARKS
FERGUS FALLS   CLOUDY     3   0  85 E3        30.28F
WHEATON        CLOUDY     1   0  92 CALM      30.30S
MORRIS         CLOUDY     3   0  85 NW3       30.25S
ALEXANDRIA     CLOUDY     5  -6  60 E6        30.23F WCI  -6
ELBOW LAKE     FAIR       5   2  86 E5        30.25F WCI  -4
WADENA         CLOUDY    -4  -9  77 CALM      30.23S
GLENWOOD       CLOUDY     5  -2  72 NE9       30.24S WCI  -9
APPLETON       CLOUDY     5   1  85 CALM      30.27S
BENSON         CLOUDY     5   1  85 CALM      30.26S
ORTONVILLE     CLOUDY     7   1  78 NW3       30.26S
MADISON        CLOUDY     5   1  85 CALM      30.28S
WILLMAR        FAIR      10   3  72 CALM      30.27S
$$
MNZ033>034-036-042>043-049>051-058-059-110900-
   Central Minnesota

CITY           SKY/WX    TMP DP  RH WIND       PRES   REMARKS
ST CLOUD       PTCLDY     3  -5  69 CALM      30.26F
SAUK CENTRE    FAIR       2  -6  69 CALM      30.26R
PAYNESVILLE    CLOUDY     3  -1  85 CALM      30.26S
AITKIN         CLOUDY   -11 -18  70 CALM      30.24S
PINE RIVER     CLOUDY   -11 -17  77 CALM      30.27S
BRAINERD       CLOUDY   -11 -15  82 CALM      30.25S
STAPLES        PTCLDY    -6  -9  84 CALM      30.24S
LONG PRAIRIE   FAIR       0  -8  71 CALM      30.25S
LITTLE FALLS   PTCLDY    -4  -9  77 CALM      30.27S HAZE
LITCHFIELD     CLOUDY     7   0  72 CALM      30.27S
BUFFALO        PTCLDY     4  -2  75 CALM      30.28S
MAPLE LAKE     PTCLDY     6  -1  71 CALM      30.27S
$$
MNZ037-044-045-052-053-110900-
   East Central Minnesota

CITY           SKY/WX    TMP DP  RH WIND       PRES   REMARKS
PRINCETON      PTCLDY     0  -8  71 CALM      30.26F
MORA           CLOUDY    -4  -9  77 CALM      30.28S
CAMBRIDGE      CLEAR      0  -9  65 CALM      30.26S
RUSH CITY      MOCLDY     0  -7  71 N5        30.28S WCI -10
MOOSE LAKE     PTCLDY   -11 -17  77 CALM      30.25R
HINCKLEY       FAIR      -4  -8  84 SW3       30.27R
CLOQUET        PTCLDY    -6 -13  71 NW3       30.21S
MCGREGOR       CLOUDY    -6  -9  84 CALM      30.25S
$$
MNZ071>073-080-081-089-090-097-098-110900-
   Southwest Minnesota

CITY           SKY/WX    TMP DP  RH WIND       PRES   REMARKS
MONTEVIDEO     CLOUDY     3  -2  78 CALM      30.29S
GRANITE FALLS  CLOUDY     3  -1  84 CALM      30.29S
CANBY          CLOUDY    10   7  89 CALM      30.27S
MARSHALL       CLOUDY     6   3  87 CALM      30.27S
REDWOOD FALLS  CLOUDY     7   2  80 CALM      30.28S
OLIVIA         CLOUDY     9   1  72 CALM      30.27S
PIPESTONE      CLOUDY    12   3  67 CALM      30.21F
WINDOM         CLOUDY     0  -2  92 CALM      30.23F
WORTHINGTON    CLOUDY    10   3  72 N5        30.23S WCI   2
JACKSON        CLOUDY     3  -4  72 N3        30.23F
TRACY          PTCLDY     7   2  82 CALM      30.25R
SLAYTON        CLOUDY     9   7  89 CALM      30.23R
$$
MNZ065>067-074>077-082>085-091>093-110900-
   South Central Minnesota

CITY           SKY/WX    TMP DP  RH WIND       PRES   REMARKS
MANKATO        CLOUDY     5  -2  72 N5        30.27R WCI  -4
NEW ULM        CLOUDY     3  -2  78 CALM      30.27F
ST JAMES       CLOUDY     1   0  92 CALM      30.28S
FAIRMONT       CLOUDY     3  -6  66 CALM      30.25R
GLENCOE        CLOUDY     5   1  83 CALM      30.27S
FARIBAULT        N/A     -2  -6  84 CALM      30.26F
OWATONNA       PTCLDY     0  -8  71 CALM      30.25S
WASECA         CLOUDY     3  -4  72 N3        30.27S
ALBERT LEA     PTCLDY     3  -2  78 CALM      30.24R
$$
MNZ078>079-086>088-094>096-110900-
   Southeast Minnesota

CITY           SKY/WX    TMP DP  RH WIND       PRES   REMARKS
ROCHESTER      CLOUDY     3  -5  69 NW7       30.23R WCI  -9
RED WING       PTCLDY     0  -8  71 N1        30.28S
STANTON        PTCLDY    -1  -5  81 SW3       30.26S
DODGE CENTER   CLOUDY     1  -6  71 N5        30.22S WCI  -8
WINONA         CLEAR      5   0  78 CALM      30.29S
AUSTIN         CLOUDY     1  -4  78 N3        30.23R
PRESTON        CLOUDY     2  -5  72 NW3       30.23S
$$
ABBREVIATIONS USED IN REMARKS
   TC - TEMPERATURES IN CELSIUS
  WCI - WIND CHILL INDEX
   HX - HEAT INDEX
  VSB - VISIBILITY
$$




USA.gov is the U.S. government's official web portal to all federal, state and local government web resources and services.